Tracking 29892 objects as of 21-Nov-2024
HD Live streaming from Space Station
objects crossing your sky now

STARLINK-3543

Track STARLINK-3543 now!
10-day predictions
STARLINK-3543 is classified as:


NORAD ID: 51716
Int'l Code: 2022-016C
Perigee: 545.9 km
Apogee: 547.9 km
Inclination: 53.2 °
Period: 95.4 minutes
Semi major axis: 6917 km
RCS: Unknown
Launch date: February 21, 2022
Source: United States (US)
Launch site: AIR FORCE EASTERN TEST RANGE (AFETR)
Your satellite tracking list
Your tracking list is empty




NASA's NSSDC Master Catalog

Two Line Element Set (TLE):
1 51716U 22016C   24325.33181068  .00000237  00000-0  32970-4 0  9994
2 51716  53.2170 298.5923 0001441  94.8940 265.2217 15.08844950151817
Source of the keplerian elements: AFSPC